Weather History for Kalispell, MT

Change the Weather History Date:

Monday, June 23, 2014

  Actual Average Record
Temperature  
Mean Temperature 65 °F 60 °F  
Max Temperature 82 °F 74 °F 93 °F (1941)
Min Temperature 47 °F 45 °F 33 °F (1997)
Degree Days  
Heating Degree Days 0 6  
Month to date heating degree days 213 178  
Since 1 June heating degree days 213 178  
Since 1 July heating degree days 8158 8001  
Cooling Degree Days 0 1  
Month to date cooling degree days 0 4  
Year to date cooling degree days 0 7  
Since 1 June cooling degree days 0 4  
Growing Degree Days 15 (Base 50)    
Moisture  
Dew Point 45 °F    
Average Humidity 52    
Maximum Humidity 86    
Minimum Humidity 18    
Precipitation  
Precipitation 0.00 in 0.08 in 0.77 in (2012)
Month to date precipitation 4.69 2.02  
Year to date precipitation 11.94 8.63  
Snow  
Snow 0.00 in - - ()
Month to date snowfall 0.0  
Year to date snowfall 38.2  
Since 1 July snowfall 71.7  
Snow Depth 0.00 in    
Sea Level Pressure  
Sea Level Pressure 30.01 in    
Wind  
Wind Speed 4 mph (North)    
Max Wind Speed 12 mph    
Max Gust Speed 17 mph    
Visibility 10 miles    
Events      
T = Trace of Precipitation, MM = Missing Value Source: NWS Daily Summary

Daily Weather History Graph

Daily Weather History Graph

Search for Another Location

Airport:

Trip Planner

Search our weather history database for the weather conditions in past years. The results will help you decide how hot, cold, wet, or windy it might be!

Date:

Astronomy

Jun. 23, 2014 Rise Set
Actual Time 5:36 AM MDT 9:42 PM MDT
Civil Twilight 4:54 AM MDT 10:23 PM MDT
Nautical Twilight 3:56 AM MDT 11:22 PM MDT
Astronomical Twilight 2:07 AM MDT 1:10 AM MDT
Moon 3:18 AM MDT (6/23) 6:15 PM MDT (6/23)
Length of Visible Light 17h 28m
Length of Day
16h 05m
Waning Crescent, 12% of the Moon is Illuminated
Jun 23
Waning Crescent
Jun 27
New
Jul 5
First Quarter
Jul 12
Full
Jul 18
Last Quarter

Hourly Weather History & Observations

Time (MDT) Temp. Dew Point Humidity Pressure Visibility Wind Dir Wind Speed Gust Speed Precip Events Conditions
12:55 AM 57.0 °F 45.0 °F 64% 30.02 in 10.0 mi NNE 5.8 mph - N/A   Clear
1:55 AM 54.0 °F 46.0 °F 75% 30.02 in 10.0 mi WNW 3.5 mph - N/A   Clear
2:55 AM 52.0 °F 46.0 °F 80% 30.04 in 10.0 mi North 4.6 mph - N/A   Clear
3:55 AM 50.0 °F 45.0 °F 83% 30.04 in 10.0 mi WNW 3.5 mph - N/A   Clear
4:55 AM 48.9 °F 45.0 °F 86% 30.04 in 10.0 mi WNW 3.5 mph - N/A   Clear
5:55 AM 48.0 °F 44.1 °F 86% 30.05 in 10.0 mi West 3.5 mph - N/A   Clear
6:55 AM 54.0 °F 46.9 °F 77% 30.05 in 10.0 mi ENE 5.8 mph - N/A   Clear
7:34 AM 54.0 °F 46.9 °F 77% 30.09 in 10.0 mi ESE 3.5 mph - N/A   Partly Cloudy
7:55 AM 55.9 °F 46.9 °F 72% 30.05 in 10.0 mi Calm Calm - N/A   Partly Cloudy
8:55 AM 64.0 °F 48.0 °F 56% 30.06 in 10.0 mi NNE 8.1 mph - N/A   Clear
9:55 AM 66.0 °F 46.9 °F 50% 30.06 in 10.0 mi North 8.1 mph - N/A   Clear
10:55 AM 69.1 °F 48.9 °F 49% 30.05 in 10.0 mi NNW 5.8 mph - N/A   Clear
11:55 AM 72.0 °F 48.0 °F 43% 30.04 in 10.0 mi Variable 3.5 mph - N/A   Clear
12:55 PM 75.0 °F 45.0 °F 34% 30.03 in 10.0 mi Calm Calm - N/A   Clear
1:55 PM 77.0 °F 46.9 °F 34% 30.01 in 10.0 mi Variable 3.5 mph - N/A   Clear
2:55 PM 78.8 °F 39.2 °F 24% 30.02 in 10.0 mi ESE 4.6 mph - N/A   Clear
4:55 PM 82.0 °F 35.1 °F 18% 29.96 in 10.0 mi SW 4.6 mph - N/A   Clear
5:55 PM 80.1 °F 37.9 °F 22% 29.96 in 10.0 mi Calm Calm - N/A   Clear
6:55 PM 79.0 °F 43.0 °F 28% 29.94 in 10.0 mi NNE 6.9 mph - N/A   Clear
7:55 PM 78.1 °F 46.9 °F 33% 29.93 in 10.0 mi NNE 8.1 mph - N/A   Clear
8:55 PM 68.0 °F 50.0 °F 52% 29.94 in 10.0 mi NNE 8.1 mph - N/A   Clear
9:55 PM 66.9 °F 46.0 °F 47% 29.95 in 10.0 mi North 4.6 mph - N/A   Clear
10:55 PM 62.1 °F 48.0 °F 60% 29.96 in 10.0 mi North - - N/A   Partly Cloudy
11:55 PM 57.9 °F 48.9 °F 72% 29.96 in 10.0 mi Calm Calm - N/A   Scattered Clouds